Maxwell AFB, AL

1:39 AM CDT on May 30, 2017 (GMT -0500)
Maxwell Air Force Base

Weather History for KMXF - March, 2014

Change the Weather History Date:

Monday, March 24, 2014

  Actual Average Record
Temperature  
Mean Temperature 54 °F -  
Max Temperature 67 °F 71 °F 83 °F (2007)
Min Temperature 43 °F 47 °F 35 °F (2008)
Degree Days  
Heating Degree Days 10    
Growing Degree Days 4 (Base 50)    
Moisture  
Dew Point 39 °F    
Average Humidity 56    
Maximum Humidity 78    
Minimum Humidity 36    
Precipitation  
Precipitation 0.00 in - - ()
Sea Level Pressure  
Sea Level Pressure 30.09 in    
Wind  
Wind Speed 7 mph (North)    
Max Wind Speed 13 mph    
Max Gust Speed -    
Visibility 10 miles    
Events      
Averages and records for this station are not official NWS values.
T = Trace of Precipitation, MM = Missing Value Source: NWS Daily Summary

Daily Weather History Graph

Daily Weather History Graph

Search for Another Location

Airport or City:

Trip Planner

Search our weather history database for the weather conditions in past years. The results will help you decide how hot, cold, wet, or windy it might be!

Date:

Astronomy

Mar. 24, 2014 Rise Set
Actual Time 6:43 AM CDT 6:59 PM CDT
Civil Twilight 6:19 AM CDT 7:24 PM CDT
Nautical Twilight 5:50 AM CDT 7:53 PM CDT
Astronomical Twilight 5:21 AM CDT 8:22 PM CDT
Moon 1:55 AM CDT (3/24) 12:42 PM CDT (3/24)
Length of Visible Light 13h 04m
Length of Day
12h 15m
Last Quarter, 43% of the Moon is Illuminated
Mar 24
Last Quarter
Mar 30
New
Apr 7
First Quarter
Apr 15
Full
Apr 22
Last Quarter

Hourly Weather History & Observations

Time (CDT) Temp. Windchill Dew Point Humidity Pressure Visibility Wind Dir Wind Speed Gust Speed Precip Events Conditions
12:58 AM 49.8 °F - 37.9 °F 64% 30.18 in 10.0 mi North 5.8 mph - N/A   Mostly Cloudy
1:58 AM 49.3 °F - 36.7 °F 62% 30.16 in 10.0 mi NNE 9.2 mph - N/A   Mostly Cloudy
2:58 AM 47.7 °F - 36.1 °F 64% 30.16 in 10.0 mi NNE 9.2 mph - N/A   Mostly Cloudy
3:58 AM 45.5 °F 40.8 °F 35.1 °F 67% 30.16 in 10.0 mi NNE 9.2 mph - N/A   Clear
4:58 AM 45.0 °F 39.7 °F 34.7 °F 67% 30.16 in 10.0 mi NNE 10.4 mph - N/A   Clear
5:58 AM 44.1 °F 37.7 °F 33.4 °F 66% 30.16 in 10.0 mi NNE 12.7 mph - N/A   Clear
6:58 AM 43.2 °F 39.0 °F 32.2 °F 65% 30.19 in 10.0 mi NNE 6.9 mph - N/A   Clear
7:58 AM 45.1 °F 39.9 °F 32.5 °F 61% 30.20 in 10.0 mi NNE 10.4 mph - N/A   Clear
8:58 AM 47.8 °F - 32.7 °F 56% 30.21 in 10.0 mi NE 9.2 mph - N/A   Clear
9:58 AM 52.0 °F - 35.1 °F 53% 30.20 in 10.0 mi NNE 8.1 mph - N/A   Clear
10:58 AM 57.6 °F - 37.8 °F 48% 30.18 in 10.0 mi ENE 12.7 mph - N/A   Clear
11:58 AM 60.1 °F - 39.7 °F 47% 30.16 in 10.0 mi East 4.6 mph - N/A   Clear
12:58 PM 61.5 °F - 41.0 °F 47% 30.12 in 10.0 mi Variable 2.3 mph - N/A   Clear
1:58 PM 64.2 °F - 41.5 °F 44% 30.08 in 10.0 mi NE 5.8 mph - N/A   Clear
2:58 PM 64.8 °F - 40.5 °F 41% 30.04 in 10.0 mi NE 5.8 mph - N/A   Clear
3:58 PM 66.6 °F - 39.6 °F 37% 30.01 in 10.0 mi NNE 5.8 mph - N/A   Clear
4:58 PM 66.9 °F - 38.8 °F 36% 29.99 in 6.0 mi Variable 4.6 mph - N/A   Haze
5:58 PM 66.6 °F - 39.7 °F 37% 29.97 in 10.0 mi North 3.5 mph - N/A   Mostly Cloudy
6:58 PM 63.7 °F - 42.1 °F 45% 29.97 in 10.0 mi WNW 2.3 mph - N/A   Overcast
7:58 PM 57.7 °F - 46.6 °F 66% 29.97 in 10.0 mi WNW 2.3 mph - N/A   Mostly Cloudy
8:58 PM 55.0 °F - 48.2 °F 78% 29.98 in 10.0 mi West 2.3 mph - N/A   Scattered Clouds
9:58 PM 55.6 °F - 43.5 °F 64% 29.98 in 10.0 mi WNW 3.5 mph - N/A   Mostly Cloudy
10:58 PM 55.8 °F - 46.6 °F 71% 29.98 in 10.0 mi WNW 4.6 mph - N/A   Overcast
11:58 PM 57.7 °F - 40.5 °F 53% 29.99 in 10.0 mi WNW 8.1 mph - N/A   Overcast